Regional Weather Roundup
Issued by NWS Charleston, SC

Current Version | Previous Version | Graphics & Text | Print | Product List | Glossary On
Versions: 1 2 3 4 5 6 7 8 9 10 11 12 13 14 15 16 17 18 19 20 21 22 23 24 25 26 27 28 29 30 31 32 33 34 35 36 37 38 39 40 41 42 43 44 45 46 47 48 49 50
000
ASUS42 KCHS 012325
RWRCHS

REGIONAL WEATHER ROUNDUP
NATIONAL WEATHER SERVICE CHARLESTON SC
700 PM EDT FRI AUG 01 2014

NOTE: "FAIR" INDICATES FEW OR NO CLOUDS BELOW 12,000 FEET WITH NO
SIGNIFICANT WEATHER AND/OR OBSTRUCTIONS TO VISIBILITY.

NOT ALL STATIONS ARE QUALITY CONTROLLED BY THE NATIONAL
WEATHER SERVICE. USE DATA WITH CAUTION...ESPECIALLY
DEWPOINT OBSERVATIONS.

SCZ027-030-031-034>040-042>050-020000-
...SOUTH CAROLINA...

CITY           SKY/WX    TMP DP  RH WIND       PRES   REMARKS
N CHARLESTON   CLOUDY    82  73  74 S8        30.00R
WATERFRONT PRK   N/A     79 N/A N/A S7          N/A
FORT JOHNSON   NOT AVBL
MOUNT PLEASANT CLOUDY    79  73  83 CALM      30.00R
JOHNS ISLAND   PTCLDY    79  66  65 CALM      30.00S
PINOPOLIS        N/A     84  75  74 MISG      29.90F HX  92
MONCKS CORNER  NOT AVBL
SUMMERVILLE    FAIR      79  79 100 CALM      30.00S
BEAUFORT MCAS  CLOUDY    81  74  79 CALM      30.00R
BEAUFORT ARPT  FAIR      81  75  83 NE3       29.99R
HILTON HEAD IS MOSUNNY   82  75  78 CALM      29.99S
GEORGETOWN     NOT AVBL
WALTERBORO     LGT RAIN  79 N/A N/A CALM      30.00F
ORANGEBURG     CLOUDY    81  71  71 NE7       30.02R
BARNWELL       FAIR      84  72  65 NE6       30.01R
AIKEN          CLOUDY    70  70 100 N9        30.08R
MANNING        CLOUDY    75 N/A N/A NW5       30.02R THUNDER
KINGSTREE      NOT AVBL
COLUMBIA       CLOUDY    76  69  79 VRB7      30.02S
SUMTER         CLOUDY    78  73  85 N7        30.00R
FLORENCE       CLOUDY    76  70  82 SE6       30.01R THUNDER
MYRTLE BEACH   PTSUNNY   81  73  78 S9        30.00S
N MYRTLE BEACH CLOUDY    80  73  79 S7        30.00S

$$

GAZ063-065-086>088-099>101-113>116-118-119-134-136>141-150-020000-
...GEORGIA...

CITY           SKY/WX    TMP DP  RH WIND       PRES   REMARKS
SAVANNAH ARPT  PTSUNNY   81  74  79 E5        29.99R
HUNTER AAF     PTSUNNY   81  75  82 NE2       29.97R
FORT STEWART   PTSUNNY   79  77  93 N5        29.97S
STATESBORO     NOT AVBL
SYLVANIA       NOT AVBL
CLAXTON        NOT AVBL
THOMSON        PTSUNNY   75  72  92 NE3       30.09R
AUGUSTA-BUSH   CLOUDY    76  68  76 N14       30.01S
AUGUSTA-DANIEL CLOUDY    73  67  81 N10       30.04S
SWAINSBORO     FAIR      88  73  62 NE6       30.00S HX  96
VIDALIA        NOT AVBL
ALMA           LGT RAIN  73  73 100 NE9       29.99F FOG
WAYCROSS       CLOUDY    82  77  84 N8        29.98R HX  90
JESUP          NOT AVBL
BRUNSWICK      NOT AVBL
SAINT SIMONS   PTSUNNY   84  76  76 E10       29.96R HX  93

$$

SCZ027-028-034-036>038-045-046-048>050-GAZ119-141-020000-
...LAKE AND SUPPLEMENTAL COASTAL OBSERVATIONS...

STATION/POSITION TIME  TEMP    WIND        PRES    WAVE   SWELL
                       AIR SEA DIR/SP/G            HT/PER HT/PER/DIR
                 (UTC) (F)     (DEG/KT/KT) (MB)    (FT/S) (FT/S/D)
UPR LAKE MARION  NOT AVBL
WINYAH BAY       2200   79     180/  6     1015.0S
LAKE MURRAY      2200   70     330/  3/  7 1016.6S
ACE BASIN NERRS  2200   81        CALM     1015.0S
FORT PULASKI     2300   82     120/  5/  6 1015.6R
SAPELO ISLAND    2300   85     100/  5     1016.0R

$$

ANZ835-935-AMZ111-154-330-350-352-354-374-450-454-472-020000-
...C-MAN AND BUOY OBSERVATIONS...

STATION/POSITION TIME  TEMP    WIND        PRES    WAVE   SWELL
                       AIR SEA DIR/SP/G            HT/PER HT/PER/DIR
                 (UTC) (F)     (DEG/KT/KT) (MB)    (FT/S) (FT/S/D)
FOLLY BEACH CMAN 2300   78     140/  2/  3 1016.2R
BUOY 41004       2300   80 82  150/ 16/ 17 1014.3S   5/ 6   2/13
BUOY 41008       2300   82 85  120/ 16/ 19 1014.3R   4/ 6
5E ST. MARYS GA  2300      86                N/A     3/ 8
FRYING PAN BUOY  NOT AVBL
BUOY 41025       2300          VRB  8/ 10  1019.4F   3/ 7   3/120/ 7
CAPE LOOKOUT NC  2300   76      80/ 13/ 14 1017.7F
BUOY 41002       2153   81 81  150/ 10/ 12 1019.1F   4/ 7   3/120/ 7
BUOY 41010       2300   84 85  110/ 12/ 14 1015.6R   2/ 7   2/ 90/ 7
BUOY 41012       NOT AVBL
ST AUGUSTINE FL  2300   83     160/ 11/ 12 1015.0R
CAPERS NEARSHORE 2200   78     140/  8/  8   N/A
FRIPP NEARSHORE  NOT AVBL


$$



USA.gov is the U.S. government's official web portal to all federal, state and local government web resources and services.